Flag for Switzerland Weather past 2 weeks in Zürich, Zurich, Switzerland

Now
57 °F

Refreshingly cool.


Feels Like: 58 °F
Forecast: 48 / 69 °F
Wind: 3 mph from West

Location: Zurich Town / Ville.

Current Time: Apr 25, 2015 at 11:14:52 AM

Latest Report: Apr 25, 2015 at 10:00 AM


Visibility: N/A

Pressure: 29.91 "Hg

Humidity: 58%

Dew point: 43 °F

Location of ZürichLocation

Historic Weather in Zürich — Graph

°F

Zürich temperature yesterday

Maximum temperature yesterday: 69 °F (at 6:00 PM)
Minimum temperature yesterday: 40 °F (at 7:00 AM)
Average temperature yesterday: 55 °F

Past Weeks' High & Low Weather Summary

 TemperatureHumidityPressure
High72 °F (Apr 15, 5:00 PM)96% (Apr 17, 10:00 PM)30.47 "Hg (Apr 17, 10:00 PM)
Low36 °F (Apr 19, 7:00 AM)19% (Apr 22, 7:00 PM)29.85 "Hg (Apr 24, 7:00 PM)
Average55 °F53%30.17 "Hg
* Reported Apr 10 10:00 AM — Apr 25 10:00 AM, Zürich, Weather by CustomWeather, © 2015

Note: Actual official high and low records may vary slightly from our data, if they occured in-between our weather recording intervals... More about our weather records

Advertising

Zürich weather history for previous 24 hours

 ConditionsComfort  
Time TempWeatherWind HumidityBarometerVisibility
10:00 AM
Sat, Apr 25
57 °FRefreshingly cool.3 mph58%29.91 "HgN/A
9:00 AM55 °FCool.1 mph68%29.91 "HgN/A
8:00 AM54 °FCool.2 mph63%29.91 "HgN/A
7:00 AM52 °FCool.1 mph68%29.92 "HgN/A
6:00 AM50 °FCool.1 mph73%29.89 "HgN/A
5:00 AM50 °FCool.1 mph74%29.89 "HgN/A
4:00 AM50 °FCool.1 mph73%29.90 "HgN/A
3:00 AM51 °FCool.No wind72%29.91 "HgN/A
2:00 AM52 °FCool.1 mph67%29.92 "HgN/A
1:00 AM52 °FCool.No wind62%29.93 "HgN/A
12:00 AM53 °FCool.No wind57%29.92 "HgN/A
11:00 PM
Fri, Apr 24
54 °FCool.2 mph56%29.92 "HgN/A
10:00 PM56 °FRefreshingly cool.2 mph50%29.91 "HgN/A
9:00 PM59 °FRefreshingly cool.5 mph47%29.90 "HgN/A
8:00 PM64 °FMild.3 mph35%29.87 "HgN/A
7:00 PM67 °FMild.3 mph29%29.85 "HgN/A
6:00 PM69 °FMild.5 mph24%29.86 "HgN/A
4:00 PM68 °FMild.5 mph30%29.89 "HgN/A
3:00 PM67 °FMild.7 mph31%29.91 "HgN/A
2:00 PM66 °FSunny.5 mph36%29.93 "HgN/A
1:00 PM64 °FMild.5 mph39%29.95 "HgN/A
12:00 PM61 °FRefreshingly cool.2 mph45%29.98 "HgN/A
11:00 AM57 °FRefreshingly cool.3 mph52%30.01 "HgN/A
Weather by CustomWeather, © 2015

See weather overviewHow to use our weather pages